Regional Weather Roundup
Issued by NWS State College, PA

Home | Current Version | Previous Version | Text Only | Print | Product List | Glossary Off
Versions: 1 2 3 4 5 6 7 8 9 10 11 12 13 14 15 16 17 18 19 20 21 22 23 24 25 26 27 28 29 30 31 32 33 34 35 36 37 38 39 40 41 42 43 44 45 46 47 48 49 50

000
ASUS41 KCTP 291210
RWRCTP

REGIONAL WEATHER ROUNDUP
NATIONAL WEATHER SERVICE STATE COLLEGE PA
800 AM EDT SAT AUG 29 2015

Note: "fair" indicates few or no clouds below 12,000 feet with no
significant weather and/or obstructions to visibility.

* = STATION THAT DOES NOT REPORT PRECIPITATION /E.G. RAIN...SNOW...ETC/
    THUNDER OR FOG.

PAZ002>004-007>009-013>016-020>023-029>032-291300-
WESTERN PENNSYLVANIA

CITY           SKY/WX    TMP DP  RH WIND       PRES   REMARKS
ERIE           PTSUNNY   62  54  74 CALM      30.17R
MEADVILLE      PTSUNNY   61  54  77 CALM      30.20R
FRANKLIN*      PTSUNNY   55  52  88 E5        30.22R
NEW CASTLE     FAIR      53  53 100 CALM      30.21R FOG
BEAVER COUNTY  NOT AVBL
BUTLER*        MOSUNNY   54  52  94 NE3       30.22R
PITTSBURGH INT PTSUNNY   58  52  80 CALM      30.19R
PITTSBURGH     MOSUNNY   58  53  84 S3        30.19R HAZE
INDIANA*       SUNNY     57  55  94 CALM      30.24R
LATROBE        PTSUNNY   57  57 100 CALM      30.21R
WASHINGTON CO* MOSUNNY   54  54 100 CALM      30.20R
$$

PAZ004>006-010>012-017>019-024>028-033>037-041-042-045-046-049>053-291300-
CENTRAL PENNSYLVANIA

CITY           SKY/WX    TMP DP  RH WIND       PRES   REMARKS
BRADFORD       SUNNY     51  49  92 CALM      30.22R
DUBOIS         SUNNY     59  53  80 E3        30.21R HAZE
CLEARFIELD     SUNNY     53  52  96 CALM      30.23R
JOHNSTOWN      SUNNY     62  57  83 SW6       30.24R
ALTOONA        SUNNY     58  54  86 CALM      30.23R FOG
STATE COLLEGE  PTSUNNY   54  54 100 CALM      30.22R FOG
WILLIAMSPORT   MOSUNNY   55  53  93 CALM      30.21R FOG
SELINSGROVE    SUNNY     58  56  93 CALM      30.22R
FT INDIANTOWN  SUNNY     59  57  92 NE2       30.22R
CAPITAL CITY   MOSUNNY   64  59  83 E5        30.21S
HARRISBURG     MOSUNNY   65  58  78 CALM      30.21R
YORK           SUNNY     60  58  92 CALM      30.21R FOG
$$

PAZ038>040-043-044-047-048-054-055-060>062-067>071-291300-
EASTERN PENNSYLVANIA

CITY           SKY/WX    TMP DP  RH WIND       PRES   REMARKS
SCRANTON       SUNNY     59  52  77 CALM      30.23R
MOUNT POCONO     N/A     56  53  90 NW3       30.26R
ALLENTOWN      SUNNY     59  55  87 CALM      30.23R
QUAKERTOWN*    SUNNY     57  54  88 CALM      30.24S
READING        SUNNY     60  56  86 CALM      30.22R
LANCASTER      MOSUNNY   59  58  96 CALM      30.22R FOG
COATESVILLE    MOSUNNY   63  61  94 CALM      30.24R
POTTSTOWN      MOSUNNY   60  58  92 CALM      30.24S
BLUE BELL      SUNNY     63  61  94 CALM      30.22S
DOYLESTOWN     SUNNY     59  57  93 CALM      30.22R
WILLOW GROVE   NOT AVBL
NORTH PHILA    SUNNY     67  58  72 CALM      30.24R
PHILADELPHIA   MOSUNNY   70  58  65 CALM      30.23R
$$


USA.gov is the U.S. government's official web portal to all federal, state and local government web resources and services.